Location: Bonneuil
(46.1010°N, 2.9693°E)
Time: 16:40:02
(UTC+00:00)

SPOT 5 - Pass Details

Date: 09 April 2020
Orbit: 624 x 814 km, 98.3° (Epoch: 05 June)

Event Time Altitude Azimuth Distance (km) Brightness Sun altitude
Exits shadow 22:10:49 28° 300° (WNW) 1,177 4.4 -31.6°
Drops below altitude 10° 22:13:25 10° 329° (NNW) 2,006 6.0 -31.8°
Sets 22:15:46 0° 339° (NNW) 2,923 7.1 -32.0°
